Hourly Weather Lowech

Today, 5 July, Sunday

Time Temperature Precipitation Wind Pressure Humidity
00:00 +22°C° 0 mm 1 mps 735 mmHg 80%
01:00 +21°C° 0 mm 1 mps 735 mmHg 82%
02:00 +21°C° 0 mm 1 mps 735 mmHg 84%
03:00 +20°C° 0 mm 1 mps 735 mmHg 85%
04:00 +20°C° 0 mm 1 mps 735 mmHg 87%
05:00 +20°C° 0 mm 1 mps 734 mmHg 88%
06:00 +20°C° 0 mm 2 mps 735 mmHg 84%
07:00 +23°C° 0 mm 2 mps 735 mmHg 80%
08:00 +24°C° 0 mm 2 mps 735 mmHg 75%
09:00 +25°C° 0 mm 2 mps 735 mmHg 73%
10:00 +26°C° 0 mm 3 mps 735 mmHg 70%
11:00 +27°C° 0 mm 3 mps 735 mmHg 68%
12:00 +27°C° 0 mm 2 mps 735 mmHg 65%
13:00 +28°C° 0 mm 2 mps 735 mmHg 63%
14:00 +29°C° 0 mm 2 mps 734 mmHg 60%
15:00 +29°C° 0.1 mm 2 mps 734 mmHg 60%
16:00 +29°C° 0.1 mm 1 mps 734 mmHg 61%
17:00 +29°C° 0.1 mm 1 mps 733 mmHg 61%
18:00 +27°C° 0.4 mm 1 mps 733 mmHg 68%
19:00 +26°C° 0.4 mm 1 mps 733 mmHg 74%
20:00 +24°C° 0.4 mm 1 mps 733 mmHg 80%
21:00 +23°C° 0 mm 1 mps 734 mmHg 81%
22:00 +23°C° 0 mm 1 mps 734 mmHg 83%
23:00 +22°C° 0 mm 1 mps 734 mmHg 85%

Tomorrow, 6 July, Monday

Time Temperature Precipitation Wind Pressure Humidity
00:00 +22°C° 0 mm 1 mps 734 mmHg 85%
01:00 +22°C° 0 mm 1 mps 734 mmHg 86%
02:00 +19°C° 0 mm 0 mps 733 mmHg 87%
03:00 +19°C° 0.3 mm 0 mps 733 mmHg 89%
04:00 +19°C° 0.3 mm 0 mps 733 mmHg 90%
05:00 +18°C° 0.3 mm 0 mps 733 mmHg 92%
06:00 +20°C° 0.5 mm 0 mps 733 mmHg 89%
07:00 +23°C° 0.5 mm 1 mps 733 mmHg 87%
08:00 +24°C° 0.5 mm 1 mps 733 mmHg 84%
09:00 +25°C° 0.8 mm 2 mps 733 mmHg 81%
10:00 +26°C° 0.8 mm 2 mps 732 mmHg 78%
11:00 +27°C° 0.8 mm 3 mps 732 mmHg 75%
12:00 +27°C° 0.7 mm 2 mps 732 mmHg 72%
13:00 +28°C° 0.7 mm 2 mps 731 mmHg 69%
14:00 +29°C° 0.7 mm 2 mps 731 mmHg 67%
15:00 +29°C° 0.7 mm 2 mps 731 mmHg 66%
16:00 +29°C° 0.7 mm 2 mps 730 mmHg 65%
17:00 +29°C° 0.7 mm 2 mps 730 mmHg 65%
18:00 +28°C° 0.3 mm 1 mps 730 mmHg 70%
19:00 +26°C° 0.3 mm 1 mps 730 mmHg 74%
20:00 +25°C° 0.3 mm 1 mps 730 mmHg 79%
21:00 +24°C° 0.1 mm 1 mps 730 mmHg 81%
22:00 +23°C° 0.1 mm 1 mps 730 mmHg 83%
23:00 +23°C° 0.1 mm 1 mps 730 mmHg 85%

Day after tomorrow, 7 July, Tuesday

Time Temperature Precipitation Wind Pressure Humidity
00:00 +22°C° 0.1 mm 1 mps 730 mmHg 86%
01:00 +22°C° 0.1 mm 1 mps 729 mmHg 88%
02:00 +21°C° 0.1 mm 1 mps 729 mmHg 89%
03:00 +21°C° 0 mm 1 mps 729 mmHg 90%
04:00 +21°C° 0 mm 1 mps 729 mmHg 90%
05:00 +21°C° 0 mm 1 mps 729 mmHg 91%
06:00 +22°C° 0 mm 1 mps 729 mmHg 87%
07:00 +24°C° 0 mm 1 mps 729 mmHg 83%
08:00 +25°C° 0 mm 1 mps 729 mmHg 79%
09:00 +26°C° 0.3 mm 1 mps 729 mmHg 77%
10:00 +27°C° 0.3 mm 2 mps 730 mmHg 74%
11:00 +28°C° 0.3 mm 2 mps 730 mmHg 72%
12:00 +28°C° 0.8 mm 3 mps 730 mmHg 72%
13:00 +28°C° 0.8 mm 3 mps 730 mmHg 72%
14:00 +28°C° 0.8 mm 4 mps 730 mmHg 72%
15:00 +27°C° 1 mm 4 mps 730 mmHg 75%
16:00 +25°C° 1 mm 5 mps 730 mmHg 78%
17:00 +23°C° 1 mm 5 mps 730 mmHg 81%
18:00 +22°C° 0.7 mm 5 mps 730 mmHg 83%
19:00 +20°C° 0.7 mm 4 mps 730 mmHg 85%
20:00 +19°C° 0.7 mm 4 mps 731 mmHg 87%
21:00 +18°C° 0 mm 3 mps 731 mmHg 87%
22:00 +18°C° 0 mm 2 mps 732 mmHg 87%
23:00 +18°C° 0 mm 2 mps 732 mmHg 86%

8 July, Wednesday

Time Temperature Precipitation Wind Pressure Humidity
00:00 +17°C° 0.1 mm 2 mps 732 mmHg 87%
01:00 +17°C° 0.1 mm 2 mps 733 mmHg 87%
02:00 +16°C° 0.1 mm 2 mps 733 mmHg 87%
03:00 +16°C° 0.1 mm 2 mps 733 mmHg 87%
04:00 +16°C° 0.1 mm 1 mps 733 mmHg 88%
05:00 +16°C° 0.1 mm 1 mps 733 mmHg 88%
06:00 +16°C° 1 mm 1 mps 733 mmHg 90%
07:00 +16°C° 1 mm 1 mps 734 mmHg 92%
08:00 +16°C° 1 mm 1 mps 734 mmHg 93%
09:00 +16°C° 0.2 mm 2 mps 734 mmHg 91%
10:00 +17°C° 0.2 mm 2 mps 735 mmHg 88%
11:00 +17°C° 0.2 mm 2 mps 735 mmHg 86%
12:00 +18°C° 0.1 mm 2 mps 735 mmHg 82%
13:00 +19°C° 0.1 mm 2 mps 735 mmHg 79%
14:00 +20°C° 0.1 mm 3 mps 735 mmHg 75%
15:00 +20°C° 0.2 mm 3 mps 735 mmHg 77%
16:00 +20°C° 0.2 mm 3 mps 735 mmHg 79%
17:00 +20°C° 0.2 mm 2 mps 735 mmHg 81%
18:00 +19°C° 0 mm 2 mps 735 mmHg 83%
19:00 +18°C° 0 mm 2 mps 735 mmHg 86%
20:00 +18°C° 0 mm 2 mps 735 mmHg 89%
21:00 +18°C° 0 mm 2 mps 735 mmHg 88%
22:00 +18°C° 0 mm 2 mps 736 mmHg 86%
23:00 +17°C° 0 mm 2 mps 736 mmHg 85%

9 July, Thursday

Time Temperature Precipitation Wind Pressure Humidity
00:00 +17°C° 0 mm 2 mps 736 mmHg 86%
01:00 +18°C° 0 mm 1 mps 736 mmHg 87%
02:00 +16°C° 0 mm 1 mps 736 mmHg 88%
03:00 +16°C° 0 mm 1 mps 736 mmHg 89%
04:00 +15°C° 0 mm 1 mps 736 mmHg 90%
05:00 +15°C° 0 mm 1 mps 736 mmHg 91%
06:00 +17°C° 0 mm 2 mps 736 mmHg 86%
07:00 +18°C° 0 mm 2 mps 736 mmHg 80%
08:00 +20°C° 0 mm 3 mps 737 mmHg 75%
09:00 +21°C° 0 mm 3 mps 737 mmHg 72%
10:00 +22°C° 0 mm 3 mps 737 mmHg 69%
11:00 +25°C° 0 mm 4 mps 737 mmHg 66%
12:00 +25°C° 0 mm 3 mps 737 mmHg 66%
13:00 +26°C° 0 mm 3 mps 736 mmHg 65%
14:00 +26°C° 0 mm 3 mps 736 mmHg 64%
15:00 +26°C° 0 mm 3 mps 736 mmHg 65%
16:00 +26°C° 0 mm 3 mps 736 mmHg 66%
17:00 +26°C° 0 mm 3 mps 736 mmHg 66%
18:00 +25°C° 0 mm 2 mps 736 mmHg 71%
19:00 +23°C° 0 mm 2 mps 736 mmHg 76%
20:00 +21°C° 0 mm 2 mps 736 mmHg 82%
21:00 +21°C° 0 mm 2 mps 736 mmHg 81%
22:00 +20°C° 0 mm 2 mps 737 mmHg 81%
23:00 +20°C° 0 mm 2 mps 737 mmHg 81%

10 July, Friday

Time Temperature Precipitation Wind Pressure Humidity
00:00 +21°C° 0 mm 1 mps 737 mmHg 80%
01:00 +20°C° 0 mm 1 mps 737 mmHg 79%
02:00 +20°C° 0 mm 1 mps 737 mmHg 79%
03:00 +20°C° 0 mm 1 mps 737 mmHg 78%
04:00 +20°C° 0 mm 1 mps 737 mmHg 77%
05:00 +20°C° 0 mm 1 mps 737 mmHg 76%
06:00 +21°C° 0 mm 1 mps 737 mmHg 75%
07:00 +22°C° 0 mm 1 mps 737 mmHg 73%
08:00 +21°C° 0 mm 0 mps 738 mmHg 71%
09:00 +23°C° 0 mm 1 mps 738 mmHg 69%
10:00 +24°C° 0 mm 1 mps 738 mmHg 66%
11:00 +25°C° 0 mm 1 mps 738 mmHg 64%
12:00 +26°C° 0 mm 1 mps 737 mmHg 63%
13:00 +27°C° 0 mm 2 mps 737 mmHg 61%
14:00 +28°C° 0 mm 2 mps 737 mmHg 59%
15:00 +27°C° 0.1 mm 2 mps 737 mmHg 61%
16:00 +27°C° 0.1 mm 2 mps 736 mmHg 63%
17:00 +27°C° 0.1 mm 3 mps 736 mmHg 65%
18:00 +25°C° 0.1 mm 2 mps 736 mmHg 69%
19:00 +24°C° 0.1 mm 2 mps 736 mmHg 72%
20:00 +23°C° 0.1 mm 1 mps 736 mmHg 76%
21:00 +22°C° 0 mm 1 mps 737 mmHg 77%
22:00 +21°C° 0 mm 1 mps 737 mmHg 79%
23:00 +21°C° 0 mm 1 mps 737 mmHg 80%
Show more